Details From KAUN - Auburn Muni
To KACV - Arcata
Flight Number -
Tags Decoded
Created
Modified
Stats Distance 193 nm / 358 km
Max Altitude 0 ft / 0 m
Waypoints 6
Social Downloads 1
Likes 0
Share VATSIM

Download

Looking for another format? Having issues loading an existing format? Contact us
Advertisement - Login to hide

Notes

Decoded

Route

KAUN MRGGO RBL YAGER KNEES KACV

ID Type Via Altitude Latitude Longitude Leg Dist Tot Dist Heading (true) Name
O KAUN APT - 0 ft / 0 m 38.95417˚ -121.08817˚ - 0 nm - -
MRGGO FIX - 0 ft / 0 m 39.22231˚ -121.27867˚ 18 nm 18 nm 331° / 331° -
RBL VOR - 0 ft / 0 m 40.09892˚ -122.23636˚ 68 nm 87 nm 320° / 320° RED BLUFF VORTAC
YAGER FIX - 0 ft / 0 m 40.55736˚ -123.82431˚ 77 nm 164 nm 291° / 290° -
KNEES FIX - 0 ft / 0 m 40.75242˚ -123.95542˚ 13 nm 178 nm 333° / 333° -
O KACV APT - 0 ft / 0 m 40.97246˚ -124.11292˚ 15 nm 193 nm 332° / 332° -

Altitude Profile

Advertisement - Login to hide

Weather


0- 5 10 15 20 25 30 35+ Temperature / ° C

Clouds and Precipitation
Forecast for 2018-05-21 06:00 UTC. Updated 4 hours ago

Ground ~20,000 ft ~40,000 ft Winds

KAUN

Details ICAO KAUN
Name AUBURN MUNI
Region United States
Timezone America/Los_Angeles (UTC-7.0)
Stats Elevation 1,536 ft / 468 m (AMSL)
Location 38.954750° -121.081667°
Runways 1
Magnetic Variation 13.496° E

METAR

KAUN 210855Z AUTO 14003KT 10SM CLR 11/08 A2985 RMK AO1

Decode

TAF

Not found

Departure Runways

ID Width Length Bearing (true) Bearing (mag) Surface Threshold Offset Overrun Length
07 75 ft / 23 m 3,713 ft / 1,132 m 83.42° 69.92° Asphalt 200 ft / 61 m 0 ft / 0 m
25 75 ft / 23 m 3,713 ft / 1,132 m 263.42° 249.92° Asphalt 0 ft / 0 m 0 ft / 0 m

KACV

Details ICAO KACV (ACV)
Name Arcata
Region United States
Timezone America/Los_Angeles (UTC-7.0)
Stats Elevation 221 ft / 67 m (AMSL)
Location 40.978077° -124.108638°
Runways 2
Magnetic Variation 14.413° E

METAR

KACV 210853Z AUTO 00000KT 9SM OVC015 12/08 A3001 RMK AO2 SLP167 T01170083 58014

Decode

TAF

TAF KACV 210538Z 2106/2206 35005KT 6SM BR SCT007 OVC015 FM210900 33004KT 4SM BR SCT005 OVC010 FM211800 29008KT P6SM SCT010 BKN020 FM212100 31010G15KT P6SM SCT015 FM220000 32008KT 6SM BR SCT007 OVC015

Decode

Destination Runways

ID Width Length Bearing (true) Bearing (mag) Surface Threshold Offset Overrun Length
01 151 ft / 46 m 4,501 ft / 1,372 m 29.65° 15.24° Asphalt 0 ft / 0 m 0 ft / 0 m
14 151 ft / 46 m 6,005 ft / 1,830 m 152.84° 138.43° Asphalt 787 ft / 240 m 223 ft / 68 m
19 151 ft / 46 m 4,501 ft / 1,372 m 209.65° 195.24° Asphalt 0 ft / 0 m 0 ft / 0 m
32 151 ft / 46 m 6,005 ft / 1,830 m 332.84° 318.43° Asphalt 0 ft / 0 m 0 ft / 0 m

Approach Navaids

Runway Type Ident Frequency Range Bearing (true) Bearing (mag) Slope Elevation
32 Localiser IACV 109.50 MHz 18 nm / 33 km 332.81° 318.40° - 180 ft / 55 m (AMSL)
32 Glidescope IACV 109.50 MHz 10 nm / 19 km 332.84° 318.43° 3.00° 215 ft / 66 m (AMSL)
32 DME IACV 109.50 MHz 18 nm / 33 km - - - 221 ft / 67 m (AMSL)